[[{"header":{"parameterUnit":"m.s-1","parameterCategory":1,"la1":30.2992,"la2":30.254,"lo1":-89.0895,"lo2":-89.0443,"dy":0.0025,"dx":0.0025,"nx":19,"ny":19,"refTime":"2026-05-17T03:00:00:Z","depth":0,"parameterNumber":2,"parameterNumberName":"U-component_of_WINDS"},"data":[0,0,0,-4.9036,-4.9037,-4.909,-4.909,-4.918,-4.9181,0,0,0,0,0,0,0,0,0,0,0,-4.9034,-4.9035,-4.9035,-4.9037,-4.909,-4.909,-4.918,-4.9181,0,0,0,0,0,0,0,0,0,0,0,-4.9034,-4.9035,-4.9036,-4.9037,-4.909,-4.909,-4.918,-4.9132,0,0,0,0,0,0,0,0,0,0,-4.9076,-4.9089,-4.9035,-4.9036,-4.9038,-4.909,-4.909,-4.9129,-4.9135,-4.9166,0,-4.9199,0,-4.9192,-4.9189,-4.9189,0,0,0,-4.9026,-4.9085,-4.9086,-4.9037,-4.9038,-4.909,-4.9063,-4.9132,-4.9138,-4.9174,-4.92,-4.9202,-4.9193,-4.9189,-4.919,-4.9409,-4.9411,0,0,-4.9023,-4.9051,-4.9082,-4.9091,-4.9085,-4.9061,-4.9065,-4.9135,-4.9165,-4.92,-4.9204,-4.9195,-4.919,-4.9191,-4.9408,-4.941,0,0,0,-4.9022,-4.905,-4.9049,-4.9088,-4.9096,-4.9063,-4.9067,-4.9162,-4.9159,-4.9205,-4.9196,-4.9191,-4.9192,-4.9406,-4.9408,-4.9511,0,0,0,-4.902,-4.9049,-4.9048,-4.9066,-4.9095,-4.913,-4.9092,-4.9154,-4.9161,-4.9195,-4.9191,-4.9193,-4.9404,-4.9407,-4.9504,-4.9554,0,0,0,-4.9026,-4.9049,-4.9062,-4.9067,-4.9091,-4.9128,-4.9129,-4.9155,-4.9157,-4.9189,-4.9194,-4.9403,-4.9407,-4.9498,-4.9544,-4.9618,0,0,0,-4.904,-4.9152,-4.9064,-4.9186,-4.9091,-4.9192,-4.9128,-4.9202,-4.9242,-4.9191,-4.9405,-4.9408,-4.9496,-4.9538,-4.9612,-4.9685,-4.9718,0,0,-4.9197,-4.9172,-4.9242,-4.9165,-4.9288,-4.9181,-4.9319,-4.933,-4.9307,-4.9376,-4.9381,-4.9506,-4.9543,-4.9617,-4.9898,-4.9925,0,0,0,-4.9301,-4.9351,-4.9378,-4.9418,-4.9429,-4.9443,-4.9429,-4.9433,-4.9491,-4.9349,-4.9553,-4.9575,-4.9617,-4.965,-4.9673,-4.9706,-4.9425,-4.9425,-4.9425,-4.9562,-4.9528,-4.964,-4.9613,-4.9653,-4.9638,-4.9667,-4.967,-4.9623,-4.9673,-4.9692,-4.9867,-4.9907,-4.9924,-4.996,-4.9729,-4.973,-4.973,-4.973,-4.9788,-4.9853,-4.979,-4.9876,-4.9839,-4.9911,-4.9902,-4.9867,-4.9928,-4.9849,-4.9885,-4.98,-4.9954,-4.9984,-4.9738,-4.9736,-4.9735,-4.9735,-4.9734,-4.9953,-4.9978,-4.9982,-5.0037,-5.0083,-5.0051,-5.0113,-5.0078,-5.0045,-5.008,-5.0096,-5.0094,-5.0087,-5.0091,-5.0092,-5.0092,-5.0093,-5.0093,-5.0093,-5.0122,-5.0123,-5.018,-5.0203,-5.0224,-5.0247,-5.0235,-5.0254,-5.0267,-5.0236,-5.0236,-5.0184,-4.9977,-4.9924,-5.0103,-5.0101,-5.01,-5.0099,-5.0098,-5.0361,-5.0301,-5.0389,-5.041,-5.0433,-5.0481,-5.0436,-5.048,-5.0491,-5.0522,-5.0464,-5.0317,-5.0288,-5.027,-5.0226,-5.0472,-5.0472,-5.0472,-5.0472,-5.0499,-5.0482,-5.0563,-5.06,-5.0631,-5.06,-5.0699,-5.0691,-5.0673,-5.0678,-5.0638,-5.0577,-5.0561,-5.0542,-5.0518,-5.0476,-5.078,-5.078,-5.078,-5.0643,-5.0627,-5.0718,-5.0701,-5.0717,-5.0731,-5.0823,-5.0867,-5.0835,-5.0792,-5.0681,-5.0668,-5.057,-5.054,-5.0493,-5.0456,-5.0379,0,0]},{"header":{"parameterUnit":"m.s-1","parameterCategory":1,"la1":30.2992,"la2":30.254,"lo1":-89.0895,"lo2":-89.0443,"dy":0.0025,"dx":0.0025,"nx":19,"ny":19,"refTime":"2026-05-17T03:00:00:Z","depth":0,"parameterNumber":3,"parameterNumberName":"V-component_of_WINDS"},"data":[0,0,0,3.3159,3.316,3.3179,3.3179,3.321,3.321,0,0,0,0,0,0,0,0,0,0,0,3.3158,3.3158,3.3159,3.316,3.3179,3.3179,3.321,3.321,0,0,0,0,0,0,0,0,0,0,0,3.3158,3.3158,3.3159,3.316,3.3179,3.3179,3.321,3.3193,0,0,0,0,0,0,0,0,0,0,3.3173,3.3176,3.3158,3.3159,3.316,3.3179,3.3179,3.3192,3.3194,3.3204,0,3.3215,0,3.3213,3.3213,3.3213,0,0,0,3.3156,3.3175,3.3176,3.3159,3.316,3.3179,3.3169,3.3193,3.3195,3.3207,3.3215,3.3216,3.3214,3.3213,3.3213,3.3285,3.3285,0,0,3.3155,3.3163,3.3174,3.3178,3.3175,3.3169,3.317,3.3194,3.3204,3.3215,3.3217,3.3214,3.3213,3.3214,3.3284,3.3285,0,0,0,3.3155,3.3163,3.3163,3.3177,3.318,3.3169,3.3171,3.3203,3.3202,3.3217,3.3215,3.3214,3.3214,3.3284,3.3285,3.3317,0,0,0,3.3154,3.3162,3.3163,3.3168,3.3179,3.3191,3.3179,3.32,3.3203,3.3214,3.3214,3.3214,3.3283,3.3284,3.3315,3.3331,0,0,0,3.3155,3.3162,3.3167,3.3169,3.3177,3.3191,3.3192,3.3201,3.3202,3.3213,3.3215,3.3283,3.3284,3.3313,3.3328,3.3353,0,0,0,3.3159,3.3195,3.3167,3.3207,3.3177,3.3211,3.3191,3.3216,3.3229,3.3214,3.3283,3.3284,3.3313,3.3326,3.3351,3.3376,3.3387,0,0,3.3209,3.3201,3.3224,3.32,3.3241,3.3207,3.3253,3.3257,3.325,3.3274,3.3275,3.3316,3.3328,3.3353,3.3445,3.3453,0,0,0,3.3242,3.3259,3.3268,3.3282,3.3286,3.3292,3.3289,3.329,3.331,3.3264,3.3331,3.3338,3.3352,3.3364,3.3371,3.3383,3.329,3.329,3.329,3.3325,3.3315,3.3352,3.3345,3.3359,3.3355,3.3365,3.3367,3.3353,3.3369,3.3376,3.3433,3.3446,3.3452,3.3465,3.3387,3.3388,3.3388,3.3388,3.3398,3.3421,3.3401,3.343,3.3419,3.3444,3.3442,3.3431,3.3452,3.3426,3.3438,3.3412,3.3462,3.3472,3.339,3.339,3.3389,3.3389,3.3389,3.3452,3.3461,3.3463,3.3482,3.3498,3.3489,3.3511,3.35,3.349,3.3502,3.3508,3.3508,3.3506,3.3505,3.3506,3.3506,3.3506,3.3506,3.3506,3.3508,3.3509,3.3528,3.3537,3.3545,3.3553,3.3551,3.3558,3.3563,3.3554,3.3554,3.3538,3.3468,3.3452,3.3509,3.3509,3.3508,3.3508,3.3508,3.3587,3.3567,3.3598,3.3606,3.3615,3.3632,3.3618,3.3634,3.3638,3.3649,3.3631,3.3581,3.3572,3.3566,3.3552,3.3633,3.3633,3.3633,3.3633,3.3633,3.3627,3.3656,3.367,3.3682,3.3672,3.3707,3.3706,3.3701,3.3703,3.3689,3.367,3.3664,3.3659,3.3651,3.3638,3.3738,3.3738,3.3738,3.3682,3.3677,3.3709,3.3704,3.3711,3.3717,3.375,3.3766,3.3756,3.3742,3.3704,3.37,3.3668,3.3658,3.3644,3.3632,3.3607,0,0]}]]